Weather History for KRXE - April, 2012

Change the Weather History Date:

Friday, April 6, 2012

  Actual Average Record
Temperature  
Mean Temperature 35 °F 42 °F  
Max Temperature 42 °F 53 °F 67 °F (2004)
Min Temperature 27 °F 30 °F 17 °F (2008)
Degree Days  
Heating Degree Days 30 24  
Month to date heating degree days 96 146  
Since 1 July heating degree days 6318 7075  
Cooling Degree Days 0 0  
Month to date cooling degree days 0 0  
Year to date cooling degree days 0 0  
Moisture  
Dew Point 28 °F    
Average Humidity 73    
Maximum Humidity 100    
Minimum Humidity 45    
Precipitation  
Precipitation 0.30 in 0.04 in - ()
Month to date precipitation 0.30 0.26  
Year to date precipitation 3.19 2.89  
Sea Level Pressure  
Sea Level Pressure 29.86 in    
Wind  
Wind Speed 12 mph (SW)    
Max Wind Speed 28 mph    
Max Gust Speed 35 mph    
Visibility 4 miles    
Events Fog , Snow    
T = Trace of Precipitation, MM = Missing Value Source: NWS Daily Summary

Daily Weather History Graph

Daily Weather History Graph

Search for Another Location

Airport or City:

Trip Planner

Search our weather history database for the weather conditions in past years. The results will help you decide how hot, cold, wet, or windy it might be!

Date:

Astronomy

Apr. 06, 2012 Rise Set
Actual Time 6:58 AM MDT 8:00 PM MDT
Civil Twilight 6:29 AM MDT 8:30 PM MDT
Nautical Twilight 5:54 AM MDT 9:05 PM MDT
Astronomical Twilight 5:17 AM MDT 9:42 PM MDT
Moon 8:27 PM MDT (4/6) 6:32 AM MDT (4/6)
Length of Visible Light 14h 00m
Length of Day
13h 02m
Full, 100% of the Moon is Illuminated
Apr 6
Full
Apr 6
Full
Apr 13
Last Quarter
Apr 21
New
Apr 29
First Quarter

Hourly Weather History & Observations

Time (MDT) Temp. Windchill Dew Point Humidity Pressure Visibility Wind Dir Wind Speed Gust Speed Precip Events Conditions
12:53 AM 42.1 °F 38.4 °F 23.0 °F 47% 29.64 in 10.0 mi WNW 5.8 mph - N/A   Overcast
1:49 AM 39.2 °F 31.6 °F 30.2 °F 70% 29.65 in 10.0 mi North 12.7 mph 18.4 mph N/A   Overcast
1:53 AM 37.9 °F 32.1 °F 30.9 °F 76% 29.65 in 10.0 mi North 8.1 mph 18.4 mph N/A   Overcast
2:45 AM 33.8 °F 27.0 °F 30.2 °F 87% 29.67 in 2.0 mi West 8.1 mph - 0.01 in Snow Light Snow
2:53 AM 33.1 °F 27.7 °F 32.0 °F 96% 29.67 in 1.2 mi WNW 5.8 mph - 0.02 in Snow Light Snow
3:05 AM 33.8 °F 27.0 °F 32.0 °F 93% 29.67 in 0.8 mi West 8.1 mph - 0.03 in Snow Light Snow
3:39 AM 33.8 °F 25.8 °F 32.0 °F 93% 29.67 in 1.2 mi WNW 10.4 mph - 0.10 in Snow Light Snow
3:53 AM 33.1 °F 26.1 °F 32.0 °F 96% 29.68 in 1.5 mi West 8.1 mph - 0.10 in Snow Light Snow
4:53 AM 32.0 °F 22.5 °F 30.9 °F 96% 29.70 in 0.8 mi WSW 12.7 mph - 0.04 in Snow Light Snow
5:06 AM 32.0 °F 23.6 °F 30.2 °F 93% 29.71 in 0.5 mi WSW 10.4 mph - 0.02 in Fog , Snow Snow
5:27 AM 30.2 °F 20.8 °F 30.2 °F 100% 29.71 in 1.0 mi WSW 11.5 mph - 0.04 in Snow Light Snow
5:37 AM 30.2 °F 21.3 °F 30.2 °F 100% 29.71 in 0.8 mi SW 10.4 mph - 0.05 in Snow Light Snow
5:53 AM 30.9 °F 22.2 °F 30.9 °F 100% 29.72 in 1.0 mi SW 10.4 mph - 0.07 in Snow Light Snow
6:31 AM 30.2 °F 19.3 °F 28.4 °F 93% 29.72 in 3.0 mi SW 15.0 mph - 0.02 in Snow Light Snow
6:46 AM 30.2 °F 20.2 °F 28.4 °F 93% 29.73 in 1.8 mi SW 12.7 mph - 0.03 in Snow Light Snow
6:53 AM 30.0 °F 20.0 °F 28.9 °F 96% 29.73 in 0.8 mi SW 12.7 mph - 0.04 in Snow Light Snow
7:04 AM 30.2 °F 19.3 °F 28.4 °F 93% 29.73 in 1.5 mi SSW 15.0 mph 20.7 mph 0.00 in Snow Light Snow
7:14 AM 30.2 °F 20.2 °F 28.4 °F 93% 29.74 in 2.5 mi SW 12.7 mph 20.7 mph 0.00 in Snow Light Snow
7:28 AM 30.2 °F 20.2 °F 28.4 °F 93% 29.75 in 1.2 mi SW 12.7 mph - 0.01 in Snow Light Snow
7:41 AM 28.4 °F 17.5 °F 28.4 °F 100% 29.75 in 0.8 mi SW 13.8 mph - 0.01 in Snow Light Snow
7:53 AM 28.9 °F 17.3 °F 27.0 °F 92% 29.78 in 0.8 mi SW 16.1 mph - 0.01 in Snow Light Snow
8:02 AM 28.4 °F 16.2 °F 26.6 °F 93% 29.77 in 1.0 mi SSW 17.3 mph 25.3 mph 0.00 in Snow Light Snow
8:09 AM 28.4 °F 16.6 °F 26.6 °F 93% 29.77 in 0.8 mi SSW 16.1 mph 25.3 mph 0.01 in Snow Light Snow
8:15 AM 28.4 °F 16.2 °F 26.6 °F 93% 29.78 in 1.0 mi SSW 17.3 mph 25.3 mph 0.01 in Snow Light Snow
8:46 AM 28.4 °F 15.4 °F 26.6 °F 93% 29.79 in 0.5 mi SSW 19.6 mph 29.9 mph 0.01 in Fog , Snow Snow
8:53 AM 27.0 °F 13.5 °F 25.0 °F 92% 29.82 in 0.5 mi SW 19.6 mph 26.5 mph 0.01 in Fog , Snow Snow
9:33 AM 26.6 °F 13.1 °F 24.8 °F 93% 29.82 in 0.5 mi SW 19.6 mph 26.5 mph 0.00 in Fog , Snow Snow
9:49 AM 26.6 °F 14.3 °F 24.8 °F 93% 29.82 in 0.5 mi SSW 16.1 mph 26.5 mph 0.00 in Fog , Snow Light Snow
9:53 AM 27.0 °F 14.3 °F 25.0 °F 92% 29.85 in 0.5 mi SSW 17.3 mph 24.2 mph 0.00 in Fog , Snow Light Snow
10:46 AM 26.6 °F 14.7 °F 24.8 °F 93% 29.86 in 1.0 mi SW 15.0 mph 26.5 mph 0.01 in Snow Light Snow
10:53 AM 27.0 °F 14.3 °F 24.1 °F 89% 29.90 in 0.8 mi SSW 17.3 mph 25.3 mph 0.01 in Snow Light Snow
11:02 AM 26.6 °F 13.1 °F 24.8 °F 93% 29.87 in 1.0 mi SSW 19.6 mph 26.5 mph 0.00 in Snow Light Snow
11:53 AM 30.0 °F 16.9 °F 26.1 °F 85% 29.92 in 2.0 mi SSW 21.9 mph 28.8 mph 0.00 in Snow Light Snow
12:24 PM 30.2 °F 18.9 °F 26.6 °F 86% 29.91 in 4.0 mi SSW 16.1 mph 26.5 mph 0.00 in Snow Light Snow
12:43 PM 32.0 °F 20.8 °F 26.6 °F 80% 29.92 in 6.0 mi SSW 17.3 mph 24.2 mph 0.00 in   Haze
12:53 PM 32.0 °F 21.6 °F 26.1 °F 79% 29.95 in 8.0 mi SSW 15.0 mph 27.6 mph 0.00 in   Overcast
1:53 PM 35.1 °F 23.8 °F 25.0 °F 67% 29.95 in 10.0 mi SSW 20.7 mph 32.2 mph 0.00 in   Mostly Cloudy
2:53 PM 37.0 °F 25.6 °F 25.0 °F 62% 29.98 in 8.0 mi SW 24.2 mph 34.5 mph N/A   Overcast
3:02 PM 35.6 °F 24.5 °F 26.6 °F 70% 29.94 in 2.5 mi SSW 20.7 mph 33.4 mph 0.00 in Snow Light Snow
3:07 PM 33.8 °F 20.5 °F 28.4 °F 81% 29.95 in 0.8 mi WSW 27.6 mph 33.4 mph 0.00 in Snow Light Snow
3:22 PM 32.0 °F 24.2 °F 30.2 °F 93% 29.95 in 0.5 mi West 9.2 mph 24.2 mph 0.00 in Fog , Snow Snow
3:26 PM 33.8 °F 26.4 °F 30.2 °F 87% 29.95 in 1.0 mi WSW 9.2 mph 21.9 mph 0.00 in Snow Light Snow
3:31 PM 33.8 °F 27.7 °F 30.2 °F 87% 29.94 in 4.0 mi SW 6.9 mph - 0.00 in Snow Light Snow
3:45 PM 35.6 °F 28.0 °F 30.2 °F 81% 29.95 in 9.0 mi SSW 10.4 mph - 0.00 in   Mostly Cloudy
3:53 PM 35.1 °F 26.9 °F 30.0 °F 82% 30.01 in 10.0 mi SW 11.5 mph - 0.00 in   Mostly Cloudy
4:13 PM 35.6 °F 26.6 °F 30.2 °F 81% 29.97 in 10.0 mi WSW 13.8 mph 20.7 mph N/A   Mostly Cloudy
4:53 PM 35.1 °F 26.4 °F 28.0 °F 76% 30.04 in 10.0 mi West 12.7 mph - N/A   Scattered Clouds
5:53 PM 37.0 °F 28.5 °F 25.0 °F 62% 30.07 in 10.0 mi WSW 13.8 mph 20.7 mph N/A   Clear
6:53 PM 36.0 °F 27.5 °F 24.1 °F 62% 30.10 in 10.0 mi West 12.7 mph - N/A   Clear
7:53 PM 34.0 °F - 27.0 °F 75% 30.15 in 10.0 mi Calm Calm - N/A   Clear
8:53 PM 32.0 °F - 27.0 °F 82% 30.19 in 10.0 mi Calm Calm - N/A   Clear
9:53 PM 30.0 °F 26.5 °F 25.0 °F 82% 30.24 in 10.0 mi WSW 3.5 mph - N/A   Clear
10:53 PM 30.0 °F 26.5 °F 23.0 °F 75% 30.26 in 10.0 mi SSW 3.5 mph - N/A   Overcast
11:53 PM 30.0 °F 23.2 °F 24.1 °F 79% 30.28 in 10.0 mi SSW 6.9 mph - N/A   Overcast